Location: *
(58.4167°N, 22.5000°E)
Time: 06:31:02
(UTC+00:00)

SAR-Lupe-2 - Pass Details

Date: 22 September 2019
Orbit: 481 x 485 km, 98.2° (Epoch: 07 October)

Event Time Altitude Azimuth Distance (km) Brightness Sun altitude
Rises 17:28:14 0° 21° (NNE) 2,568 7.2 -8.3°
Reaches altitude 10° 17:30:26 10° 31° (NNE) 1,681 6.1 -8.6°
Maximum altitude 17:33:46 34° 98° (E) 813 4.2 -9.0°
Drops below altitude 10° 17:37:04 10° 166° (SSE) 1,665 6.0 -9.4°
Sets 17:39:15 0° 175° (S) 2,539 7.0 -9.7°
